Regional Weather Roundup
Issued by NWS

Home | Current Version | Previous Version | Graphics & Text | Print | Product List | Glossary On
Versions: 1 2 3 4 5 6 7 8 9 10 11 12 13 14 15 16 17 18 19 20 21 22 23 24 25 26 27 28 29 30 31 32 33 34 35 36 37 38 39 40 41 42 43 44 45 46 47 48 49 50
000
ASUS43 KTOP 111059
RWRKS

WEATHER ROUNDUP FOR KANSAS
NATIONAL WEATHER SERVICE GOODLAND KS
600 AM CDT FRI JUL 11 2014

NOTE:  "FAIR" INDICATES FEW OR NO CLOUDS BELOW 12,000 FEET WITH NO
SIGNIFICANT WEATHER AND/OR OBSTRUCTIONS TO VISIBILITY.

KSZ001>006-013>018-027>032-041>047-111200-
NORTHWEST KANSAS

CITY           SKY/WX    TMP DP  RH WIND       PRES   REMARKS
GOODLAND       PTCLDY    72  52  49 S15       29.96S
HAYS           CLEAR    N/A N/A N/A SE7       29.95R
HILL CITY      PTCLDY    68  66  93 E5        29.93F
RUSSELL        CLEAR     69  67  93 S8        29.94S
$$

KSZ061>065-074>080-084>089-111200-
SOUTHWEST KANSAS

CITY           SKY/WX    TMP DP  RH WIND       PRES   REMARKS
DODGE CITY     CLEAR     64  55  72 S8        30.01R
ELKHART          N/A     72  51  47 S12         N/A
GARDEN CITY    CLEAR     66  53  63 S6        30.00R
GREAT BEND     CLEAR     68  64  88 S8        29.95S
LIBERAL        CLEAR     70  48  46 S9        30.04R
$$

KSZ066>073-081>083-090>101-111200-
SOUTHEAST KANSAS

CITY           SKY/WX    TMP DP  RH WIND       PRES   REMARKS
CHANUTE        PTCLDY    69  65  86 SE8       30.06R
COFFEYVILLE    CLEAR     68  65  90 SE6       30.05R
HUTCHINSON     CLEAR     69  65  86 SE9       29.98S
MEDICINE LODGE   N/A     69  67  93 SE7       29.99R
NEWTON         CLEAR     66  61  82 S10       30.03S
PARSONS        CLEAR     70  65  84 S5        30.06R
WICHITA INTL   PTCLDY    69  66  90 S9        30.00R
WICHITA JABRA  CLEAR     68  67  96 SE10      30.01R
WINFIELD       CLEAR     69  68  96 SE7       30.03R
$$

KSZ007>012-019>026-033>040-048>060-102>105-111200-
NORTHEAST KANSAS

CITY           SKY/WX    TMP DP  RH WIND       PRES   REMARKS
CONCORDIA      MOCLDY    68  66  93 SE10      29.96F
EMPORIA        PTCLDY    68  66  93 S13       30.03R
LAWRENCE       PTCLDY    69  66  90 SE8       30.04R
MANHATTAN      PTCLDY    70  66  87 S5        29.99S
OLATHE IND     MOCLDY    69  66  90 SE12      30.06S
OLATHE EXE     MOCLDY    67  65  93 S9        30.06R
SALINA         PTCLDY    70  66  87 SE8       29.97R
TOPEKA BILLARD MOCLDY    71  67  87 SE8       30.02S
TOPEKA FORBES  PTCLDY    70  66  87 SE10      30.02S
$$



USA.gov is the U.S. government's official web portal to all federal, state and local government web resources and services.